Voltar ao catálogo

COSMOS 2251 DEB

AtivoVLEO
NORAD 34752·DEBRIS·🇷🇺 Russia

Lançado Jun 16, 1993 de Plesetsk Cosmodrome

Loading…

Próximas Passagens (próximas 24 horas)

TLE

AtualizadoSource: Space-Track

Época: Sep 14, 2026, 09:37 UTC

1 34752U 93036ZW  26257.40097197  .00007895  00000-0  52031-3 0  9994
2 34752  74.0107 156.1742 0046596 212.5768 147.2546 15.06742910939936

Acompanhe COSMOS 2251 DEB em tempo real com AllMySat

Download on the App Store